[[{"header":{"parameterUnit":"m.s-1","parameterCategory":1,"la1":30.2991,"la2":30.254,"lo1":-89.0895,"lo2":-89.0444,"dy":0.0017,"dx":0.0017,"nx":28,"ny":28,"refTime":"2025-02-11T09:00:00:Z","depth":0,"parameterNumber":2,"parameterNumberName":"U-component_of_WINDS"},"data":[0,0,0,0,0,0,0,0,0,0,0,0,0,0,0,0,0,0,0,0,0,0,0,0,0,0,0,0,0,0,0,0,0,0,0,0,0,0,0,0,0,0,0,0,0,0,0,0,0,0,0,0,0,0,0,0,0,0,0.1286,0.1286,0,0.1282,0.1282,0.1281,0.128,0.128,0.128,0.128,0.1273,0.1273,0.1273,0,0,0,0,0,0,0,0,0,0,0,0,0,0.129,0.129,0.1286,0.1286,0.1286,0.1282,0.1282,0.1281,0.128,0.128,0.128,0.128,0.1273,0.1273,0.1273,0,0,0,0,0,0,0,0,0,0,0,0,0,0.1287,0.129,0.1286,0.1285,0.1285,0.1282,0.1282,0.1281,0.128,0.128,0.128,0.128,0.1274,0.1273,0.1273,0.127,0,0,0.1272,0.1272,0,0,0,0,0,0,0,0,0.1288,0.1287,0.1285,0.1285,0.1285,0.1282,0.128,0.1277,0.128,0.1282,0.128,0.128,0.1276,0.1275,0.1274,0.127,0.1269,0.1272,0.1272,0.1272,0.1271,0,0,0,0,0,0,0,0.1288,0.1287,0.1284,0.1285,0.1285,0.1283,0.1283,0.128,0.1279,0.1282,0.1282,0.1281,0.1276,0.1275,0.1274,0.1269,0.1272,0.1272,0.1271,0.1271,0.1259,0.1259,0,0,0,0,0,0,0.1289,0.1288,0.1284,0.1284,0.1286,0.1283,0.1283,0.1283,0.1279,0.1278,0.1281,0.1281,0.1275,0.1275,0.1274,0.1269,0.1272,0.1271,0.1271,0.1259,0.1259,0.1259,0,0,0,0,0,0,0.1289,0.1288,0.1285,0.1286,0.1285,0.1283,0.1283,0.1282,0.1281,0.1278,0.1278,0.1281,0.1275,0.1274,0.127,0.1268,0.1271,0.1271,0.1259,0.1259,0.1259,0.1259,0,0,0,0,0,0,0.1289,0.1288,0.1288,0.1286,0.1285,0.1282,0.1283,0.1282,0.1281,0.1281,0.1278,0.1277,0.1275,0.1271,0.127,0.1268,0.1271,0.1259,0.1259,0.1259,0.1259,0.1259,0.1258,0,0,0,0,0,0.1289,0.1289,0.1288,0.1288,0.1285,0.1282,0.1282,0.1281,0.1281,0.128,0.1278,0.1277,0.1269,0.1271,0.127,0.1267,0.1259,0.1259,0.1259,0.1259,0.1259,0.1258,0,0,0,0,0,0,0.1291,0.1288,0.1288,0.1287,0.1285,0.1282,0.1281,0.1281,0.1278,0.1278,0.1275,0.1275,0.127,0.1268,0.1271,0.1263,0.1264,0.1263,0.1264,0.1264,0.1264,0.1264,0.127,0,0,0,0,0,0.1291,0.129,0.1287,0.1287,0.1286,0.1284,0.1282,0.1281,0.1279,0.1278,0.1275,0.1272,0.1268,0.1266,0.1263,0.1258,0.1256,0.1256,0.1256,0.1255,0.1255,0.125,0.1249,0.1257,0.1258,0.1258,0,0,0.1291,0.129,0.1289,0.1287,0.1285,0.1283,0.1283,0.1281,0.1278,0.1277,0.1273,0.1271,0.1267,0.1262,0.126,0.126,0.1252,0.1255,0.1255,0.1254,0.125,0.1249,0.1248,0.1257,0.1257,0.1257,0,0,0.1291,0.129,0.1289,0.1287,0.1284,0.1282,0.1282,0.1279,0.1277,0.1273,0.1272,0.1268,0.1263,0.1259,0.1257,0.1252,0.1251,0.1251,0.1249,0.1245,0.1244,0.1243,0.124,0.1239,0.1251,0.1251,0.1251,0,0.1292,0.1289,0.1288,0.1286,0.1284,0.1282,0.128,0.1277,0.1273,0.1271,0.1272,0.1263,0.1261,0.1254,0.1253,0.1252,0.1249,0.1252,0.1245,0.1244,0.1243,0.124,0.1239,0.1251,0.1251,0.1251,0.1251,0,0.1289,0.1287,0.1286,0.1282,0.128,0.1278,0.1275,0.1272,0.1271,0.1268,0.1263,0.1259,0.1254,0.1253,0.1251,0.1245,0.1245,0.1245,0.1246,0.1242,0.1239,0.1238,0.1251,0.1251,0.1251,0.1251,0,0,0.1291,0.1286,0.1285,0.1282,0.1278,0.1276,0.1272,0.1268,0.1265,0.1261,0.1257,0.1251,0.1251,0.1248,0.1246,0.1242,0.1236,0.1242,0.1242,0.124,0.1227,0.1226,0.1225,0.1235,0.1235,0.1235,0.1226,0,0.1289,0.1284,0.1282,0.1277,0.1274,0.1271,0.1267,0.1263,0.1261,0.1256,0.1253,0.1248,0.1248,0.1246,0.1242,0.1238,0.1233,0.1238,0.1229,0.1229,0.123,0.1224,0.1224,0.1216,0.1225,0.1225,0.1225,0,0.1287,0.1284,0.1278,0.1273,0.1271,0.1268,0.1263,0.1259,0.1254,0.1252,0.1247,0.1245,0.1239,0.124,0.1231,0.1234,0.123,0.1227,0.1226,0.1225,0.1227,0.1221,0.1214,0.1213,0.1224,0.1224,0.1224,0,0.1287,0.1281,0.1277,0.1275,0.1268,0.1266,0.1263,0.1258,0.1254,0.1249,0.1246,0.124,0.1236,0.123,0.1226,0.1227,0.1216,0.1217,0.1212,0.1212,0.121,0.121,0.1201,0.1209,0.1209,0.1209,0.1209,0,0.1286,0.1282,0.1277,0.1274,0.1269,0.1265,0.126,0.1257,0.1252,0.1247,0.1244,0.1239,0.1233,0.1227,0.1223,0.1215,0.1213,0.121,0.1209,0.121,0.121,0.1207,0.1207,0.1208,0.1209,0.1209,0.1209,0,0.1285,0.1282,0.1276,0.127,0.1268,0.1265,0.1259,0.1255,0.1251,0.1245,0.1243,0.1237,0.1229,0.1224,0.1214,0.1211,0.1201,0.1201,0.1204,0.1203,0.1198,0.1198,0.1186,0.1183,0.1194,0.1193,0.1193,0,0.1284,0.1281,0.1274,0.1271,0.1268,0.1263,0.1259,0.1255,0.1251,0.1243,0.124,0.1232,0.1225,0.1213,0.1206,0.1198,0.1196,0.1193,0.1195,0.1196,0.1195,0.1195,0.1193,0.1192,0.1192,0.1192,0.1192,0,0.1282,0.128,0.1275,0.1269,0.1265,0.1259,0.1254,0.1251,0.1245,0.1241,0.1233,0.1228,0.1217,0.1209,0.1199,0.1194,0.1191,0.1191,0.1189,0.119,0.1191,0.1189,0.1201,0.1192,0.1192,0.1192,0.1192,0.1192,0.128,0.1277,0.1271,0.1265,0.1261,0.1255,0.1251,0.1246,0.124,0.1231,0.1228,0.122,0.1212,0.1199,0.1194,0.1185,0.1186,0.1183,0.1183,0.1182,0.1181,0.1193,0.1184,0.1184,0.1184,0.1184,0.1184,0,0.1277,0.1273,0.1267,0.126,0.1254,0.1253,0.1246,0.1241,0.1234,0.1227,0.1221,0.121,0.1201,0.1193,0.1184,0.1179,0.1177,0.1176,0.1176,0.1174,0.1183,0.1184,0.1177,0.1177,0.1177,0.1177,0.1177,0.1177,0.1275,0.1268,0.1265,0.1255,0.125,0.1243,0.1239,0.1233,0.1227,0.1216,0.1209,0.1204,0.1196,0.1185,0.1176,0.1173,0.1169,0.1169,0.1166,0.1173,0.1174,0.1175,0.1177,0.1168,0.1168,0.1158,0.1158,0.1158]},{"header":{"parameterUnit":"m.s-1","parameterCategory":1,"la1":30.2991,"la2":30.254,"lo1":-89.0895,"lo2":-89.0444,"dy":0.0017,"dx":0.0017,"nx":28,"ny":28,"refTime":"2025-02-11T09:00:00:Z","depth":0,"parameterNumber":3,"parameterNumberName":"V-component_of_WINDS"},"data":[0,0,0,0,0,0,0,0,0,0,0,0,0,0,0,0,0,0,0,0,0,0,0,0,0,0,0,0,0,0,0,0,0,0,0,0,0,0,0,0,0,0,0,0,0,0,0,0,0,0,0,0,0,0,0,0,0,0,5.9777,5.9778,0,5.9816,5.9817,5.9817,5.98,5.98,5.9799,5.9798,5.9832,5.9834,5.9835,0,0,0,0,0,0,0,0,0,0,0,0,0,5.9683,5.9685,5.9777,5.9778,5.9778,5.9816,5.9817,5.9817,5.9801,5.98,5.9798,5.9797,5.9831,5.9833,5.9836,0,0,0,0,0,0,0,0,0,0,0,0,0,5.9723,5.9685,5.9777,5.9775,5.9775,5.9816,5.9817,5.9817,5.9801,5.98,5.9798,5.9797,5.9831,5.9833,5.9836,5.988,0,0,5.9844,5.9845,0,0,0,0,0,0,0,0,5.9721,5.9726,5.9774,5.9775,5.9775,5.9802,5.9796,5.9838,5.9801,5.9791,5.9798,5.9796,5.9823,5.9826,5.9836,5.9882,5.9883,5.9844,5.9846,5.9847,5.9848,0,0,0,0,0,0,0,5.9718,5.9724,5.9792,5.9775,5.9776,5.977,5.9774,5.9804,5.9814,5.9792,5.979,5.9796,5.9823,5.9834,5.9837,5.9884,5.9844,5.9847,5.9848,5.9849,5.9968,5.997,0,0,0,0,0,0,5.9716,5.9722,5.9791,5.9794,5.9744,5.9773,5.9777,5.9795,5.9814,5.9815,5.9797,5.9795,5.983,5.9834,5.9838,5.9892,5.9847,5.9849,5.9851,5.9967,5.9968,5.997,0,0,0,0,0,0,5.9714,5.9722,5.979,5.9758,5.9766,5.9776,5.9796,5.9796,5.9807,5.9818,5.9819,5.9807,5.9829,5.9834,5.987,5.9893,5.9851,5.9853,5.9965,5.9967,5.9969,5.9999,0,0,0,0,0,0,5.9711,5.9722,5.974,5.9758,5.9768,5.9823,5.9797,5.9798,5.9813,5.981,5.9827,5.9828,5.9828,5.9867,5.9873,5.9895,5.9855,5.9963,5.9966,5.9969,5.9996,6.0002,6.0007,0,0,0,0,0,5.9708,5.9745,5.9741,5.9749,5.9791,5.9824,5.9829,5.983,5.9815,5.9832,5.9839,5.9828,5.9889,5.987,5.9877,5.9901,5.9961,5.9965,5.9968,5.9994,6.0001,6.0007,0,0,0,0,0,0,5.9725,5.9747,5.9743,5.9787,5.9804,5.9821,5.9843,5.9837,5.9858,5.9854,5.9852,5.9856,5.9894,5.9901,5.988,5.9945,5.9923,5.9928,5.9939,5.9946,5.9952,5.9949,5.9857,0,0,0,0,0,5.9735,5.9762,5.9779,5.9816,5.9825,5.9833,5.9848,5.9847,5.9864,5.987,5.9879,5.9895,5.9917,5.9932,5.9954,5.9997,6.0,6.0017,6.0022,6.0027,6.0031,6.0055,6.0063,5.9982,5.9982,5.9982,0,0,5.9754,5.9769,5.9786,5.982,5.9833,5.986,5.9839,5.9868,5.9888,5.9874,5.9909,5.9917,5.9933,5.9974,5.9992,5.9981,6.0055,6.0031,6.0035,6.0037,6.006,6.0067,6.0074,5.9984,5.9984,5.9983,0,0,5.9802,5.9817,5.985,5.9865,5.9886,5.9891,5.9899,5.9918,5.9923,5.9959,5.995,5.9972,6.0011,6.0024,6.0036,6.0091,6.0082,6.0098,6.0127,6.015,6.0157,6.0162,6.0182,6.0189,6.0102,6.0102,6.0102,0,5.9822,5.9865,5.9867,5.9898,5.9914,5.9905,5.9938,5.9951,5.9978,5.9988,5.9975,6.0026,6.0036,6.008,6.0093,6.0103,6.0111,6.0096,6.0156,6.0161,6.0167,6.0186,6.0193,6.0104,6.0104,6.0104,6.0103,0,5.9889,5.9918,5.9942,5.9971,5.9989,6.002,6.0027,6.0044,6.0042,6.0048,6.0085,6.0098,6.0122,6.0133,6.013,6.0176,6.0169,6.0156,6.0133,6.0176,6.0194,6.0201,6.0107,6.0106,6.0105,6.0105,0,0,5.9948,5.998,5.9989,6.0002,6.0026,6.0048,6.0079,6.0105,6.012,6.0139,6.0164,6.0198,6.0188,6.0201,6.0199,6.022,6.0264,6.0205,6.0206,6.0216,6.0316,6.0325,6.0333,6.0258,6.0259,6.0261,6.0314,0,5.9998,6.0056,6.006,6.0111,6.0138,6.0131,6.0158,6.0175,6.0182,6.0204,6.0211,6.0235,6.0219,6.0227,6.0247,6.0254,6.0284,6.025,6.0281,6.0282,6.0277,6.0343,6.0352,6.0402,6.0321,6.0322,6.0323,0,6.0065,6.0089,6.0143,6.0165,6.0176,6.0201,6.0226,6.0248,6.0267,6.027,6.0286,6.0282,6.0313,6.029,6.0331,6.0309,6.0321,6.0327,6.0328,6.0331,6.0305,6.0347,6.0418,6.0426,6.0334,6.0333,6.0332,0,6.0103,6.0148,6.0188,6.0199,6.0225,6.0243,6.0254,6.0271,6.0287,6.0309,6.0319,6.0342,6.0355,6.0373,6.0375,6.0358,6.0417,6.0394,6.042,6.042,6.0432,6.0431,6.0507,6.044,6.044,6.044,6.044,0,6.0159,6.0192,6.0205,6.0229,6.0267,6.0271,6.0307,6.0317,6.0333,6.0357,6.0352,6.0374,6.0376,6.0399,6.0401,6.0435,6.0441,6.0443,6.0443,6.0444,6.0444,6.0452,6.0449,6.0442,6.0442,6.0441,6.0441,0,6.0207,6.0218,6.026,6.0282,6.0289,6.0315,6.0333,6.0355,6.0363,6.0394,6.0401,6.0411,6.0438,6.0443,6.0473,6.0474,6.0516,6.0512,6.051,6.051,6.0536,6.0533,6.0619,6.063,6.0557,6.0557,6.0558,0,6.0243,6.0269,6.0295,6.0313,6.0326,6.0353,6.0371,6.0376,6.0393,6.0418,6.0437,6.0464,6.0485,6.0528,6.0537,6.0561,6.0558,6.0586,6.0561,6.0561,6.0558,6.0557,6.056,6.0591,6.0592,6.0592,6.0593,0,6.0304,6.0308,6.0335,6.0363,6.0385,6.0407,6.0428,6.0441,6.0449,6.0469,6.0498,6.0515,6.0548,6.0575,6.0599,6.0608,6.0601,6.0601,6.0608,6.0609,6.0607,6.0609,6.0524,6.0599,6.0598,6.0598,6.0597,6.0597,6.0347,6.037,6.0394,6.0423,6.044,6.046,6.0483,6.0494,6.0519,6.0548,6.0549,6.0581,6.0599,6.0631,6.0642,6.0666,6.0656,6.0667,6.0669,6.0672,6.0675,6.0604,6.067,6.067,6.0669,6.0669,6.0669,0,6.0408,6.0423,6.0451,6.0482,6.0505,6.05,6.0523,6.0542,6.0571,6.059,6.0613,6.0646,6.0672,6.0684,6.071,6.0726,6.0724,6.0733,6.0731,6.0734,6.0681,6.0673,6.0734,6.0734,6.0734,6.0734,6.0734,6.0734,6.0443,6.0483,6.049,6.0538,6.0553,6.0586,6.06,6.0618,6.0633,6.0672,6.0695,6.0703,6.0719,6.0746,6.0769,6.0772,6.0781,6.0792,6.0793,6.0744,6.0737,6.0731,6.0723,6.0794,6.0794,6.0843,6.0844,6.0844]}]]